When you browse on this site, cookies collect data to enhance your experience and personalize the content and advertising you see.
Visit our Privacy Policy to learn more. By continuing to use the site, you agree to this use of cookies and data.
  • In United Kingdom
  • List of Countries
  • For 7 days
  • Water Temperature
  • Weather Map
  • Weather Widgets
  • user-avatar
    Login

    Hourly Weather La Rioja

    Today, 6 June, Saturday

    Time Temperature Precipitation Wind Pressure Humidity
    00:00 +11°C° 0 mm 1 mps 716 mmHg 54%
    01:00 +11°C° 0 mm 1 mps 715 mmHg 53%
    02:00 +10°C° 0 mm 1 mps 715 mmHg 53%
    03:00 +10°C° 0 mm 1 mps 714 mmHg 55%
    04:00 +8°C° 0 mm 0 mps 714 mmHg 56%
    05:00 +8°C° 0 mm 0 mps 713 mmHg 57%
    06:00 +8°C° 0 mm 0 mps 713 mmHg 54%
    07:00 +10°C° 0 mm 1 mps 714 mmHg 52%
    08:00 +11°C° 0 mm 1 mps 714 mmHg 49%
    09:00 +13°C° 0 mm 1 mps 714 mmHg 42%
    10:00 +16°C° 0 mm 1 mps 715 mmHg 35%
    11:00 +20°C° 0 mm 1 mps 715 mmHg 28%
    12:00 +20°C° 0 mm 1 mps 715 mmHg 27%
    13:00 +21°C° 0 mm 1 mps 714 mmHg 25%
    14:00 +21°C° 0 mm 2 mps 713 mmHg 24%
    15:00 +21°C° 0 mm 1 mps 713 mmHg 27%
    16:00 +21°C° 0 mm 1 mps 713 mmHg 31%
    17:00 +20°C° 0 mm 1 mps 712 mmHg 34%
    18:00 +18°C° 0 mm 1 mps 712 mmHg 36%
    19:00 +16°C° 0 mm 1 mps 713 mmHg 38%
    20:00 +14°C° 0 mm 1 mps 713 mmHg 41%
    21:00 +13°C° 0 mm 1 mps 713 mmHg 43%
    22:00 +13°C° 0 mm 1 mps 712 mmHg 45%
    23:00 +12°C° 0 mm 1 mps 712 mmHg 48%

    Tomorrow, 7 June, Sunday

    Time Temperature Precipitation Wind Pressure Humidity
    00:00 +12°C° 0 mm 1 mps 712 mmHg 51%
    01:00 +12°C° 0 mm 2 mps 712 mmHg 54%
    02:00 +10°C° 0 mm 2 mps 712 mmHg 57%
    03:00 +10°C° 0 mm 2 mps 712 mmHg 59%
    04:00 +9°C° 0 mm 2 mps 712 mmHg 62%
    05:00 +9°C° 0 mm 2 mps 712 mmHg 64%
    06:00 +9°C° 0 mm 2 mps 712 mmHg 61%
    07:00 +10°C° 0 mm 2 mps 713 mmHg 58%
    08:00 +10°C° 0 mm 2 mps 714 mmHg 55%
    09:00 +13°C° 0 mm 2 mps 714 mmHg 49%
    10:00 +16°C° 0 mm 2 mps 714 mmHg 43%
    11:00 +18°C° 0 mm 2 mps 715 mmHg 37%
    12:00 +19°C° 0 mm 2 mps 714 mmHg 35%
    13:00 +20°C° 0 mm 2 mps 714 mmHg 34%
    14:00 +20°C° 0 mm 2 mps 713 mmHg 33%
    15:00 +20°C° 0 mm 2 mps 713 mmHg 36%
    16:00 +19°C° 0 mm 2 mps 713 mmHg 39%
    17:00 +19°C° 0 mm 1 mps 713 mmHg 41%
    18:00 +18°C° 0 mm 1 mps 713 mmHg 44%
    19:00 +16°C° 0 mm 1 mps 713 mmHg 47%
    20:00 +14°C° 0 mm 2 mps 714 mmHg 50%
    21:00 +14°C° 0 mm 2 mps 714 mmHg 51%
    22:00 +13°C° 0 mm 2 mps 714 mmHg 53%
    23:00 +13°C° 0 mm 2 mps 714 mmHg 55%

    Day after tomorrow, 8 June, Monday

    Time Temperature Precipitation Wind Pressure Humidity
    00:00 +13°C° 0 mm 1 mps 714 mmHg 57%
    01:00 +12°C° 0 mm 1 mps 714 mmHg 60%
    02:00 +12°C° 0 mm 1 mps 714 mmHg 62%
    03:00 +11°C° 0 mm 1 mps 714 mmHg 65%
    04:00 +11°C° 0 mm 1 mps 713 mmHg 68%
    05:00 +10°C° 0 mm 1 mps 713 mmHg 70%
    06:00 +11°C° 0 mm 1 mps 714 mmHg 67%
    07:00 +11°C° 0 mm 1 mps 714 mmHg 64%
    08:00 +12°C° 0 mm 1 mps 714 mmHg 60%
    09:00 +14°C° 0 mm 1 mps 715 mmHg 53%
    10:00 +18°C° 0 mm 1 mps 715 mmHg 45%
    11:00 +21°C° 0 mm 1 mps 715 mmHg 38%
    12:00 +21°C° 0 mm 1 mps 715 mmHg 37%
    13:00 +21°C° 0 mm 2 mps 714 mmHg 35%
    14:00 +23°C° 0 mm 2 mps 713 mmHg 34%
    15:00 +22°C° 0 mm 1 mps 713 mmHg 37%
    16:00 +22°C° 0 mm 1 mps 713 mmHg 41%
    17:00 +21°C° 0 mm 1 mps 713 mmHg 44%
    18:00 +19°C° 0 mm 1 mps 713 mmHg 49%
    19:00 +18°C° 0 mm 1 mps 714 mmHg 53%
    20:00 +15°C° 0 mm 1 mps 714 mmHg 58%
    21:00 +14°C° 0 mm 1 mps 714 mmHg 61%
    22:00 +14°C° 0 mm 1 mps 714 mmHg 64%
    23:00 +13°C° 0 mm 1 mps 715 mmHg 66%

    9 June, Tuesday

    Time Temperature Precipitation Wind Pressure Humidity
    00:00 +13°C° 0 mm 1 mps 714 mmHg 67%
    01:00 +13°C° 0 mm 1 mps 714 mmHg 68%
    02:00 +13°C° 0 mm 1 mps 714 mmHg 70%
    03:00 +13°C° 0 mm 1 mps 714 mmHg 72%
    04:00 +12°C° 0 mm 1 mps 714 mmHg 74%
    05:00 +12°C° 0 mm 1 mps 714 mmHg 77%
    06:00 +12°C° 0 mm 1 mps 714 mmHg 78%
    07:00 +13°C° 0 mm 1 mps 714 mmHg 79%
    08:00 +13°C° 0 mm 1 mps 714 mmHg 80%
    09:00 +15°C° 0 mm 2 mps 715 mmHg 74%
    10:00 +16°C° 0 mm 2 mps 715 mmHg 68%
    11:00 +18°C° 0 mm 2 mps 715 mmHg 61%
    12:00 +19°C° 0 mm 2 mps 714 mmHg 60%
    13:00 +20°C° 0 mm 2 mps 713 mmHg 58%
    14:00 +20°C° 0 mm 2 mps 713 mmHg 56%
    15:00 +20°C° 0 mm 2 mps 712 mmHg 60%
    16:00 +19°C° 0 mm 2 mps 712 mmHg 64%
    17:00 +18°C° 0 mm 2 mps 712 mmHg 67%
    18:00 +18°C° 0 mm 2 mps 712 mmHg 72%
    19:00 +17°C° 0 mm 2 mps 712 mmHg 77%
    20:00 +16°C° 0 mm 1 mps 713 mmHg 82%
    21:00 +15°C° 0 mm 1 mps 713 mmHg 83%
    22:00 +15°C° 0 mm 1 mps 713 mmHg 85%
    23:00 +14°C° 0 mm 1 mps 713 mmHg 87%

    10 June, Wednesday

    Time Temperature Precipitation Wind Pressure Humidity
    00:00 +14°C° 0 mm 1 mps 713 mmHg 88%
    01:00 +13°C° 0 mm 1 mps 713 mmHg 90%
    02:00 +12°C° 0 mm 1 mps 712 mmHg 91%
    03:00 +12°C° 0 mm 1 mps 712 mmHg 91%
    04:00 +12°C° 0 mm 1 mps 712 mmHg 91%
    05:00 +12°C° 0 mm 1 mps 712 mmHg 90%
    06:00 +12°C° 0 mm 1 mps 712 mmHg 91%
    07:00 +12°C° 0 mm 1 mps 713 mmHg 91%
    08:00 +13°C° 0 mm 1 mps 713 mmHg 91%
    09:00 +15°C° 0 mm 1 mps 713 mmHg 83%
    10:00 +16°C° 0 mm 1 mps 713 mmHg 75%
    11:00 +18°C° 0 mm 2 mps 713 mmHg 67%
    12:00 +19°C° 0 mm 2 mps 713 mmHg 64%
    13:00 +20°C° 0 mm 2 mps 712 mmHg 62%
    14:00 +20°C° 0 mm 2 mps 712 mmHg 60%
    15:00 +21°C° 0 mm 1 mps 711 mmHg 62%
    16:00 +21°C° 0 mm 1 mps 711 mmHg 64%
    17:00 +21°C° 0 mm 1 mps 711 mmHg 66%
    18:00 +19°C° 0 mm 1 mps 711 mmHg 72%
    19:00 +18°C° 0 mm 1 mps 711 mmHg 78%
    20:00 +15°C° 0 mm 1 mps 711 mmHg 84%
    21:00 +15°C° 0 mm 1 mps 711 mmHg 84%
    22:00 +15°C° 0 mm 1 mps 711 mmHg 84%
    23:00 +15°C° 0 mm 1 mps 711 mmHg 85%

    11 June, Thursday

    Time Temperature Precipitation Wind Pressure Humidity
    00:00 +14°C° 0 mm 1 mps 710 mmHg 85%
    01:00 +14°C° 0 mm 1 mps 710 mmHg 86%
    02:00 +13°C° 0 mm 1 mps 709 mmHg 87%
    03:00 +13°C° 0 mm 1 mps 708 mmHg 88%
    04:00 +13°C° 0 mm 1 mps 708 mmHg 88%
    05:00 +12°C° 0 mm 1 mps 707 mmHg 89%
    06:00 +13°C° 0 mm 2 mps 707 mmHg 89%
    07:00 +13°C° 0 mm 2 mps 707 mmHg 89%
    08:00 +13°C° 0 mm 3 mps 708 mmHg 88%
    09:00 +14°C° 0 mm 3 mps 708 mmHg 81%
    10:00 +17°C° 0 mm 3 mps 709 mmHg 74%
    11:00 +19°C° 0 mm 4 mps 709 mmHg 66%
    12:00 +20°C° 0 mm 3 mps 709 mmHg 62%
    13:00 +21°C° 0 mm 3 mps 708 mmHg 58%
    14:00 +21°C° 0 mm 2 mps 708 mmHg 53%
    15:00 +21°C° 0 mm 2 mps 707 mmHg 57%
    16:00 +20°C° 0 mm 2 mps 707 mmHg 61%
    17:00 +21°C° 0 mm 1 mps 707 mmHg 66%
    18:00 +19°C° 0 mm 1 mps 708 mmHg 71%
    19:00 +18°C° 0 mm 1 mps 708 mmHg 77%
    20:00 +15°C° 0 mm 1 mps 708 mmHg 83%
    21:00 +15°C° 0 mm 1 mps 708 mmHg 83%
    22:00 +14°C° 0 mm 1 mps 708 mmHg 84%
    23:00 +14°C° 0 mm 1 mps 708 mmHg 84%
    Show more